Time,TemperatureF,DewpointF,PressureIn,WindDirection,WindDirectionDegrees,WindSpeedMPH,WindSpeedGustMPH,Humidity,HourlyPrecipIn,Conditions,Clouds,dailyrainin,SoftwareType,DateUTC
2013-02-20 00:00:00,45.6,38.1,30.20,North,32767,0.0,0.0,75,0.00,,,0.00,Wunderground v.1.15,2013-02-20 06:00:00,
2013-02-20 00:05:00,45.6,37.8,30.21,North,32767,0.0,0.0,74,0.00,,,0.00,Wunderground v.1.15,2013-02-20 06:05:00,
2013-02-20 00:10:00,45.5,37.7,30.21,North,32767,0.0,0.0,74,0.00,,,0.00,Wunderground v.1.15,2013-02-20 06:10:00,
2013-02-20 00:15:00,45.4,37.6,30.21,North,32767,0.0,0.0,74,0.00,,,0.00,Wunderground v.1.15,2013-02-20 06:15:00,
2013-02-20 00:20:00,45.4,37.9,30.22,North,32767,0.0,0.0,75,0.00,,,0.00,Wunderground v.1.15,2013-02-20 06:20:00,
2013-02-20 00:25:00,45.3,37.5,30.22,North,32767,0.0,0.0,74,0.00,,,0.00,Wunderground v.1.15,2013-02-20 06:25:00,
2013-02-20 00:30:00,45.3,37.8,30.22,North,32767,0.0,0.0,75,0.00,,,0.00,Wunderground v.1.15,2013-02-20 06:30:00,
2013-02-20 00:35:00,45.2,37.7,30.22,North,32767,0.0,0.0,75,0.00,,,0.00,Wunderground v.1.15,2013-02-20 06:35:00,
2013-02-20 00:40:00,45.0,37.6,30.21,North,32767,0.0,0.0,75,0.00,,,0.00,Wunderground v.1.15,2013-02-20 06:40:00,
2013-02-20 00:45:00,44.9,37.5,30.21,North,32767,0.0,0.0,75,0.00,,,0.00,Wunderground v.1.15,2013-02-20 06:45:00,
2013-02-20 00:50:00,44.7,37.3,30.22,North,32767,0.0,0.0,75,0.00,,,0.00,Wunderground v.1.15,2013-02-20 06:50:00,
2013-02-20 00:55:00,44.6,37.5,30.22,North,32767,0.0,0.0,76,0.00,,,0.00,Wunderground v.1.15,2013-02-20 06:55:00,
2013-02-20 01:00:00,44.5,37.1,30.21,North,32767,0.0,0.0,75,0.00,,,0.00,Wunderground v.1.15,2013-02-20 07:00:00,
2013-02-20 01:05:00,44.5,37.1,30.21,North,32767,0.0,0.0,75,0.00,,,0.00,Wunderground v.1.15,2013-02-20 07:05:00,
2013-02-20 01:10:00,44.5,36.7,30.21,North,32767,0.0,0.0,74,0.00,,,0.00,Wunderground v.1.15,2013-02-20 07:10:00,
2013-02-20 01:15:00,44.5,36.7,30.20,North,32767,0.0,0.0,74,0.00,,,0.00,Wunderground v.1.15,2013-02-20 07:15:00,
2013-02-20 01:20:00,44.5,36.7,30.21,North,32767,0.0,0.0,74,0.00,,,0.00,Wunderground v.1.15,2013-02-20 07:20:00,
2013-02-20 01:30:00,44.8,36.3,30.22,North,32767,0.0,0.0,72,0.00,,,0.00,Wunderground v.1.15,2013-02-20 07:30:00,
2013-02-20 01:35:00,44.8,36.3,30.22,North,32767,0.0,0.0,72,0.00,,,0.00,Wunderground v.1.15,2013-02-20 07:35:00,
2013-02-20 01:40:00,44.8,36.0,30.22,North,32767,0.0,0.0,71,0.00,,,0.00,Wunderground v.1.15,2013-02-20 07:40:00,
2013-02-20 01:45:00,44.8,35.6,30.22,North,32767,0.0,0.0,70,0.00,,,0.00,Wunderground v.1.15,2013-02-20 07:45:00,
2013-02-20 01:50:00,44.8,35.6,30.22,North,32767,0.0,0.0,70,0.00,,,0.00,Wunderground v.1.15,2013-02-20 07:50:00,
2013-02-20 01:55:00,44.8,35.6,30.22,North,32767,0.0,0.0,70,0.00,,,0.00,Wunderground v.1.15,2013-02-20 07:55:00,
2013-02-20 02:05:00,44.6,35.4,30.20,North,32767,0.0,0.0,70,0.00,,,0.00,Wunderground v.1.15,2013-02-20 08:05:00,
2013-02-20 02:10:00,44.5,35.3,30.20,North,32767,0.0,0.0,70,0.00,,,0.00,Wunderground v.1.15,2013-02-20 08:10:00,
2013-02-20 02:15:00,44.4,34.9,30.19,North,32767,0.0,0.0,69,0.00,,,0.00,Wunderground v.1.15,2013-02-20 08:15:00,
2013-02-20 02:20:00,44.3,35.5,30.19,North,32767,0.0,0.0,71,0.00,,,0.00,Wunderground v.1.15,2013-02-20 08:20:00,
2013-02-20 02:25:00,44.2,34.7,30.19,North,32767,0.0,0.0,69,0.00,,,0.00,Wunderground v.1.15,2013-02-20 08:25:00,
2013-02-20 02:30:00,44.1,34.9,30.19,North,32767,0.0,0.0,70,0.00,,,0.00,Wunderground v.1.15,2013-02-20 08:30:00,
2013-02-20 02:35:00,44.0,34.8,30.20,North,32767,0.0,0.0,70,0.00,,,0.00,Wunderground v.1.15,2013-02-20 08:35:00,
2013-02-20 02:45:00,43.7,34.9,30.20,North,32767,0.0,0.0,71,0.00,,,0.00,Wunderground v.1.15,2013-02-20 08:45:00,
2013-02-20 02:50:00,43.5,35.1,30.20,North,32767,0.0,0.0,72,0.00,,,0.00,Wunderground v.1.15,2013-02-20 08:50:00,
2013-02-20 02:55:00,43.3,34.9,30.20,North,32767,0.0,0.0,72,0.00,,,0.00,Wunderground v.1.15,2013-02-20 08:55:00,
2013-02-20 03:00:00,43.1,34.7,30.20,North,32767,0.0,0.0,72,0.00,,,0.00,Wunderground v.1.15,2013-02-20 09:00:00,
2013-02-20 03:05:00,43.0,34.6,30.20,North,32767,0.0,0.0,72,0.00,,,0.00,Wunderground v.1.15,2013-02-20 09:05:00,
2013-02-20 03:10:00,42.9,34.5,30.19,North,32767,0.0,0.0,72,0.00,,,0.00,Wunderground v.1.15,2013-02-20 09:10:00,
2013-02-20 03:15:00,42.7,34.3,30.19,North,32767,0.0,0.0,72,0.00,,,0.00,Wunderground v.1.15,2013-02-20 09:15:00,
2013-02-20 03:20:00,42.5,34.5,30.19,North,32767,0.0,0.0,73,0.00,,,0.00,Wunderground v.1.15,2013-02-20 09:20:00,
2013-02-20 03:25:00,42.3,34.6,30.19,North,32767,0.0,0.0,74,0.00,,,0.00,Wunderground v.1.15,2013-02-20 09:25:00,
2013-02-20 03:30:00,42.3,34.3,30.19,North,32767,0.0,0.0,73,0.00,,,0.00,Wunderground v.1.15,2013-02-20 09:30:00,
2013-02-20 03:35:00,42.3,34.6,30.19,North,32767,0.0,0.0,74,0.00,,,0.00,Wunderground v.1.15,2013-02-20 09:35:00,
2013-02-20 03:40:00,42.2,34.5,30.19,North,32767,0.0,0.0,74,0.00,,,0.00,Wunderground v.1.15,2013-02-20 09:40:00,
2013-02-20 03:45:00,42.1,34.1,30.19,North,32767,0.0,0.0,73,0.00,,,0.00,Wunderground v.1.15,2013-02-20 09:45:00,
2013-02-20 03:50:00,42.0,34.6,30.19,North,32767,0.0,0.0,75,0.00,,,0.00,Wunderground v.1.15,2013-02-20 09:50:00,
2013-02-20 04:00:00,42.2,34.8,30.20,North,32767,0.0,0.0,75,0.00,,,0.00,Wunderground v.1.15,2013-02-20 10:00:00,
2013-02-20 04:05:00,42.3,34.6,30.20,North,32767,0.0,0.0,74,0.00,,,0.00,Wunderground v.1.15,2013-02-20 10:05:00,
2013-02-20 04:10:00,42.3,34.6,30.20,North,32767,0.0,0.0,74,0.00,,,0.00,Wunderground v.1.15,2013-02-20 10:10:00,
2013-02-20 04:15:00,42.3,34.6,30.20,North,32767,0.0,0.0,74,0.00,,,0.00,Wunderground v.1.15,2013-02-20 10:15:00,
2013-02-20 04:20:00,42.2,34.5,30.20,North,32767,0.0,0.0,74,0.00,,,0.00,Wunderground v.1.15,2013-02-20 10:20:00,
2013-02-20 04:25:00,42.1,34.1,30.20,North,32767,0.0,0.0,73,0.00,,,0.00,Wunderground v.1.15,2013-02-20 10:25:00,
2013-02-20 04:30:00,42.0,34.0,30.19,North,32767,0.0,0.0,73,0.00,,,0.00,Wunderground v.1.15,2013-02-20 10:30:00,
2013-02-20 04:35:00,41.9,34.2,30.18,North,32767,0.0,0.0,74,0.00,,,0.00,Wunderground v.1.15,2013-02-20 10:35:00,
2013-02-20 04:40:00,41.9,34.2,30.18,North,32767,0.0,0.0,74,0.00,,,0.00,Wunderground v.1.15,2013-02-20 10:40:00,
2013-02-20 04:45:00,41.9,33.9,30.18,North,32767,0.0,0.0,73,0.00,,,0.00,Wunderground v.1.15,2013-02-20 10:45:00,
2013-02-20 04:50:00,42.0,34.0,30.18,North,32767,0.0,0.0,73,0.00,,,0.00,Wunderground v.1.15,2013-02-20 10:50:00,
2013-02-20 04:55:00,42.0,34.3,30.18,North,32767,0.0,0.0,74,0.00,,,0.00,Wunderground v.1.15,2013-02-20 10:55:00,
2013-02-20 05:00:00,41.9,33.9,30.17,North,32767,0.0,0.0,73,0.00,,,0.00,Wunderground v.1.15,2013-02-20 11:00:00,
2013-02-20 05:05:00,41.9,33.9,30.17,North,32767,0.0,0.0,73,0.00,,,0.00,Wunderground v.1.15,2013-02-20 11:05:00,
2013-02-20 05:10:00,41.9,34.2,30.17,North,32767,0.0,0.0,74,0.00,,,0.00,Wunderground v.1.15,2013-02-20 11:10:00,
2013-02-20 05:15:00,41.9,33.9,30.17,North,32767,0.0,0.0,73,0.00,,,0.00,Wunderground v.1.15,2013-02-20 11:15:00,
2013-02-20 05:20:00,41.9,33.9,30.17,North,32767,0.0,0.0,73,0.00,,,0.00,Wunderground v.1.15,2013-02-20 11:20:00,
2013-02-20 05:25:00,41.9,33.5,30.16,North,32767,0.0,0.0,72,0.00,,,0.00,Wunderground v.1.15,2013-02-20 11:25:00,
2013-02-20 05:30:00,41.9,33.9,30.15,North,32767,0.0,0.0,73,0.00,,,0.00,Wunderground v.1.15,2013-02-20 11:30:00,
2013-02-20 05:35:00,42.0,34.0,30.15,North,32767,0.0,0.0,73,0.00,,,0.00,Wunderground v.1.15,2013-02-20 11:35:00,
2013-02-20 05:40:00,42.0,34.0,30.15,North,32767,0.0,0.0,73,0.00,,,0.00,Wunderground v.1.15,2013-02-20 11:40:00,
2013-02-20 05:45:00,42.0,34.0,30.15,North,32767,0.0,0.0,73,0.00,,,0.00,Wunderground v.1.15,2013-02-20 11:45:00,
2013-02-20 05:55:00,42.1,33.7,30.15,North,32767,0.0,0.0,72,0.00,,,0.00,Wunderground v.1.15,2013-02-20 11:55:00,
2013-02-20 06:00:00,42.1,34.1,30.16,North,32767,0.0,0.0,73,0.00,,,0.00,Wunderground v.1.15,2013-02-20 12:00:00,
2013-02-20 06:05:00,42.0,34.6,30.17,North,32767,0.0,0.0,75,0.00,,,0.00,Wunderground v.1.15,2013-02-20 12:05:00,
2013-02-20 06:15:00,42.0,35.0,30.19,North,32767,0.0,0.0,76,0.00,,,0.00,Wunderground v.1.15,2013-02-20 12:15:00,
2013-02-20 06:20:00,42.0,34.3,30.17,North,32767,0.0,0.0,74,0.00,,,0.00,Wunderground v.1.15,2013-02-20 12:20:00,
2013-02-20 06:25:00,42.1,34.4,30.18,North,32767,0.0,0.0,74,0.00,,,0.00,Wunderground v.1.15,2013-02-20 12:25:00,
2013-02-20 06:30:00,42.2,34.8,30.20,North,32767,0.0,0.0,75,0.00,,,0.00,Wunderground v.1.15,2013-02-20 12:30:00,
2013-02-20 06:35:00,42.2,34.5,30.19,North,32767,0.0,0.0,74,0.00,,,0.00,Wunderground v.1.15,2013-02-20 12:35:00,
2013-02-20 06:40:00,42.2,34.2,30.20,North,32767,0.0,0.0,73,0.00,,,0.00,Wunderground v.1.15,2013-02-20 12:40:00,
2013-02-20 06:45:00,42.6,34.2,30.20,North,32767,0.0,0.0,72,0.00,,,0.00,Wunderground v.1.15,2013-02-20 12:45:00,
2013-02-20 06:50:00,42.7,33.9,30.20,North,32767,0.0,0.0,71,0.00,,,0.00,Wunderground v.1.15,2013-02-20 12:50:00,
2013-02-20 06:55:00,42.9,34.1,30.21,North,32767,0.0,0.0,71,0.00,,,0.00,Wunderground v.1.15,2013-02-20 12:55:00,
2013-02-20 07:00:00,43.1,34.0,30.22,North,32767,0.0,0.0,70,0.00,,,0.00,Wunderground v.1.15,2013-02-20 13:00:00,
2013-02-20 07:05:00,43.3,33.8,30.23,North,32767,0.0,0.0,69,0.00,,,0.00,Wunderground v.1.15,2013-02-20 13:05:00,
2013-02-20 07:15:00,43.7,34.6,30.23,North,32767,0.0,0.0,70,0.00,,,0.00,Wunderground v.1.15,2013-02-20 13:15:00,
2013-02-20 07:20:00,43.9,33.6,30.22,North,32767,0.0,0.0,67,0.00,,,0.00,Wunderground v.1.15,2013-02-20 13:20:00,
2013-02-20 07:30:00,44.1,34.6,30.22,North,32767,0.0,0.0,69,0.00,,,0.00,Wunderground v.1.15,2013-02-20 13:30:00,
2013-02-20 07:35:00,44.2,34.7,30.22,North,32767,0.0,0.0,69,0.00,,,0.00,Wunderground v.1.15,2013-02-20 13:35:00,
2013-02-20 07:40:00,44.3,34.4,30.23,North,32767,0.0,0.0,68,0.00,,,0.00,Wunderground v.1.15,2013-02-20 13:40:00,
2013-02-20 07:45:00,44.4,34.1,30.23,North,32767,0.0,0.0,67,0.00,,,0.00,Wunderground v.1.15,2013-02-20 13:45:00,
2013-02-20 07:50:00,44.5,33.8,30.23,North,32767,0.0,0.0,66,0.00,,,0.00,Wunderground v.1.15,2013-02-20 13:50:00,
2013-02-20 07:55:00,44.7,34.4,30.24,North,32767,0.0,0.0,67,0.00,,,0.00,Wunderground v.1.15,2013-02-20 13:55:00,
2013-02-20 08:00:00,44.9,34.2,30.24,North,32767,0.0,0.0,66,0.00,,,0.00,Wunderground v.1.15,2013-02-20 14:00:00,
2013-02-20 08:05:00,45.1,33.6,30.24,North,32767,0.0,0.0,64,0.00,,,0.00,Wunderground v.1.15,2013-02-20 14:05:00,
2013-02-20 08:10:00,45.1,34.4,30.24,North,32767,0.0,0.0,66,0.00,,,0.00,Wunderground v.1.15,2013-02-20 14:10:00,
2013-02-20 08:15:00,45.2,33.3,30.24,North,32767,0.0,0.0,63,0.00,,,0.00,Wunderground v.1.15,2013-02-20 14:15:00,
2013-02-20 08:20:00,45.2,33.7,30.25,North,32767,0.0,0.0,64,0.00,,,0.00,Wunderground v.1.15,2013-02-20 14:20:00,
2013-02-20 08:25:00,45.4,33.9,30.24,North,32767,0.0,0.0,64,0.00,,,0.00,Wunderground v.1.15,2013-02-20 14:25:00,
2013-02-20 08:30:00,45.6,33.3,30.24,North,32767,0.0,0.0,62,0.00,,,0.00,Wunderground v.1.15,2013-02-20 14:30:00,
2013-02-20 08:35:00,45.8,33.9,30.25,North,32767,0.0,0.0,63,0.00,,,0.00,Wunderground v.1.15,2013-02-20 14:35:00,
2013-02-20 08:40:00,45.9,34.4,30.25,North,32767,0.0,0.0,64,0.00,,,0.00,Wunderground v.1.15,2013-02-20 14:40:00,
2013-02-20 08:45:00,46.1,33.8,30.25,North,32767,0.0,0.0,62,0.00,,,0.00,Wunderground v.1.15,2013-02-20 14:45:00,
2013-02-20 08:50:00,46.2,34.3,30.25,North,32767,0.0,0.0,63,0.00,,,0.00,Wunderground v.1.15,2013-02-20 14:50:00,
2013-02-20 08:55:00,46.5,34.2,30.26,North,32767,0.0,0.0,62,0.00,,,0.00,Wunderground v.1.15,2013-02-20 14:55:00,
2013-02-20 09:00:00,46.7,34.0,30.26,North,32767,0.0,0.0,61,0.00,,,0.00,Wunderground v.1.15,2013-02-20 15:00:00,
2013-02-20 09:05:00,46.9,33.7,30.26,North,32767,0.0,0.0,60,0.00,,,0.00,Wunderground v.1.15,2013-02-20 15:05:00,
2013-02-20 09:10:00,47.2,34.0,30.26,North,32767,0.0,0.0,60,0.00,,,0.00,Wunderground v.1.15,2013-02-20 15:10:00,
2013-02-20 09:15:00,47.6,33.1,30.26,North,32767,0.0,0.0,57,0.00,,,0.00,Wunderground v.1.15,2013-02-20 15:15:00,
2013-02-20 09:20:00,47.6,32.2,30.26,North,32767,0.0,0.0,55,0.00,,,0.00,Wunderground v.1.15,2013-02-20 15:20:00,
2013-02-20 09:25:00,47.8,32.9,30.25,North,32767,0.0,0.0,56,0.00,,,0.00,Wunderground v.1.15,2013-02-20 15:25:00,
2013-02-20 09:30:00,48.2,32.3,30.25,North,32767,0.0,0.0,54,0.00,,,0.00,Wunderground v.1.15,2013-02-20 15:30:00,
2013-02-20 09:35:00,48.1,31.3,30.25,North,32767,0.0,0.0,52,0.00,,,0.00,Wunderground v.1.15,2013-02-20 15:35:00,
2013-02-20 09:40:00,48.2,31.9,30.24,North,32767,0.0,0.0,53,0.00,,,0.00,Wunderground v.1.15,2013-02-20 15:40:00,
2013-02-20 09:45:00,48.4,31.1,30.23,North,32767,0.0,0.0,51,0.00,,,0.00,Wunderground v.1.15,2013-02-20 15:45:00,
2013-02-20 09:50:00,48.7,32.3,30.24,North,32767,0.0,0.0,53,0.00,,,0.00,Wunderground v.1.15,2013-02-20 15:50:00,
2013-02-20 09:55:00,49.0,33.1,30.24,North,32767,0.0,0.0,54,0.00,,,0.00,Wunderground v.1.15,2013-02-20 15:55:00,
2013-02-20 10:00:00,49.0,32.6,30.24,North,32767,0.0,0.0,53,0.00,,,0.00,Wunderground v.1.15,2013-02-20 16:00:00,
2013-02-20 10:05:00,49.0,31.2,30.24,North,32767,0.0,0.0,50,0.00,,,0.00,Wunderground v.1.15,2013-02-20 16:05:00,
2013-02-20 10:10:00,49.0,30.7,30.24,North,32767,0.0,0.0,49,0.00,,,0.00,Wunderground v.1.15,2013-02-20 16:10:00,
2013-02-20 10:15:00,49.4,32.0,30.24,North,32767,0.0,0.0,51,0.00,,,0.00,Wunderground v.1.15,2013-02-20 16:15:00,
2013-02-20 10:20:00,49.7,32.8,30.24,North,32767,0.0,0.0,52,0.00,,,0.00,Wunderground v.1.15,2013-02-20 16:20:00,
2013-02-20 10:25:00,50.1,32.2,30.24,North,32767,0.0,0.0,50,0.00,,,0.00,Wunderground v.1.15,2013-02-20 16:25:00,
2013-02-20 10:30:00,50.2,30.7,30.24,North,32767,0.0,0.0,47,0.00,,,0.00,Wunderground v.1.15,2013-02-20 16:30:00,
2013-02-20 10:35:00,50.8,31.8,30.24,North,32767,0.0,0.0,48,0.00,,,0.00,Wunderground v.1.15,2013-02-20 16:35:00,
2013-02-20 10:40:00,51.4,31.3,30.23,North,32767,0.0,0.0,46,0.00,,,0.00,Wunderground v.1.15,2013-02-20 16:40:00,
2013-02-20 10:45:00,51.7,31.6,30.23,North,32767,0.0,0.0,46,0.00,,,0.00,Wunderground v.1.15,2013-02-20 16:45:00,
2013-02-20 10:50:00,52.2,31.5,30.23,North,32767,0.0,0.0,45,0.00,,,0.00,Wunderground v.1.15,2013-02-20 16:50:00,
2013-02-20 10:55:00,52.5,31.8,30.23,North,32767,0.0,0.0,45,0.00,,,0.00,Wunderground v.1.15,2013-02-20 16:55:00,
2013-02-20 11:00:00,52.3,31.6,30.23,North,32767,0.0,0.0,45,0.00,,,0.00,Wunderground v.1.15,2013-02-20 17:00:00,
2013-02-20 11:05:00,52.6,32.9,30.24,North,32767,0.0,0.0,47,0.00,,,0.00,Wunderground v.1.15,2013-02-20 17:05:00,
2013-02-20 11:10:00,53.0,33.8,30.24,North,32767,0.0,0.0,48,0.00,,,0.00,Wunderground v.1.15,2013-02-20 17:10:00,
2013-02-20 11:20:00,53.0,32.8,30.23,North,32767,0.0,0.0,46,0.00,,,0.00,Wunderground v.1.15,2013-02-20 17:20:00,
2013-02-20 11:25:00,53.5,34.3,30.24,North,32767,0.0,0.0,48,0.00,,,0.00,Wunderground v.1.15,2013-02-20 17:25:00,
2013-02-20 11:30:00,54.2,32.2,30.24,North,32767,0.0,0.0,43,0.00,,,0.00,Wunderground v.1.15,2013-02-20 17:30:00,
2013-02-20 11:35:00,54.3,33.9,30.23,North,32767,0.0,0.0,46,0.00,,,0.00,Wunderground v.1.15,2013-02-20 17:35:00,
2013-02-20 11:40:00,54.6,33.7,30.23,North,32767,0.0,0.0,45,0.00,,,0.00,Wunderground v.1.15,2013-02-20 17:40:00,
2013-02-20 11:45:00,54.8,34.4,30.22,North,32767,0.0,0.0,46,0.00,,,0.00,Wunderground v.1.15,2013-02-20 17:45:00,
2013-02-20 11:50:00,54.9,35.6,30.22,North,32767,0.0,0.0,48,0.00,,,0.00,Wunderground v.1.15,2013-02-20 17:50:00,
2013-02-20 11:55:00,55.4,34.9,30.21,North,32767,0.0,0.0,46,0.00,,,0.00,Wunderground v.1.15,2013-02-20 17:55:00,
2013-02-20 12:00:00,55.8,35.3,30.21,North,32767,0.0,0.0,46,0.00,,,0.00,Wunderground v.1.15,2013-02-20 18:00:00,
2013-02-20 12:05:00,56.0,34.4,30.20,North,32767,0.0,0.0,44,0.00,,,0.00,Wunderground v.1.15,2013-02-20 18:05:00,
2013-02-20 12:15:00,55.9,36.5,30.19,North,32767,0.0,0.0,48,0.00,,,0.00,Wunderground v.1.15,2013-02-20 18:15:00,
2013-02-20 12:20:00,55.7,36.3,30.18,North,32767,0.0,0.0,48,0.00,,,0.00,Wunderground v.1.15,2013-02-20 18:20:00,
2013-02-20 12:25:00,55.8,34.8,30.18,North,32767,0.0,0.0,45,0.00,,,0.00,Wunderground v.1.15,2013-02-20 18:25:00,
2013-02-20 12:30:00,56.0,34.9,30.17,North,32767,0.0,0.0,45,0.00,,,0.00,Wunderground v.1.15,2013-02-20 18:30:00,
2013-02-20 12:35:00,55.6,35.1,30.17,North,32767,0.0,0.0,46,0.00,,,0.00,Wunderground v.1.15,2013-02-20 18:35:00,
2013-02-20 12:40:00,55.6,35.7,30.17,North,32767,0.0,0.0,47,0.00,,,0.00,Wunderground v.1.15,2013-02-20 18:40:00,
2013-02-20 12:45:00,55.6,35.7,30.17,North,32767,0.0,0.0,47,0.00,,,0.00,Wunderground v.1.15,2013-02-20 18:45:00,
2013-02-20 12:50:00,55.7,35.2,30.16,North,32767,0.0,0.0,46,0.00,,,0.00,Wunderground v.1.15,2013-02-20 18:50:00,
2013-02-20 12:55:00,55.1,36.3,30.16,North,32767,0.0,0.0,49,0.00,,,0.00,Wunderground v.1.15,2013-02-20 18:55:00,
2013-02-20 13:00:00,55.5,35.0,30.16,North,32767,0.0,0.0,46,0.00,,,0.00,Wunderground v.1.15,2013-02-20 19:00:00,
2013-02-20 13:05:00,55.4,34.9,30.15,North,32767,0.0,0.0,46,0.00,,,0.00,Wunderground v.1.15,2013-02-20 19:05:00,
2013-02-20 13:10:00,55.5,35.0,30.14,North,32767,0.0,0.0,46,0.00,,,0.00,Wunderground v.1.15,2013-02-20 19:10:00,
2013-02-20 13:15:00,55.6,37.2,30.13,North,32767,0.0,0.0,50,0.00,,,0.00,Wunderground v.1.15,2013-02-20 19:15:00,
2013-02-20 13:20:00,56.2,37.8,30.14,North,32767,0.0,0.0,50,0.00,,,0.00,Wunderground v.1.15,2013-02-20 19:20:00,
2013-02-20 13:25:00,56.4,37.5,30.14,North,32767,0.0,0.0,49,0.00,,,0.00,Wunderground v.1.15,2013-02-20 19:25:00,
2013-02-20 13:30:00,56.0,35.5,30.13,North,32767,0.0,0.0,46,0.00,,,0.00,Wunderground v.1.15,2013-02-20 19:30:00,
2013-02-20 13:35:00,56.0,36.6,30.12,North,32767,0.0,0.0,48,0.00,,,0.00,Wunderground v.1.15,2013-02-20 19:35:00,
2013-02-20 13:40:00,56.2,36.8,30.12,North,32767,0.0,0.0,48,0.00,,,0.00,Wunderground v.1.15,2013-02-20 19:40:00,
2013-02-20 13:45:00,56.4,36.9,30.12,North,32767,0.0,0.0,48,0.00,,,0.00,Wunderground v.1.15,2013-02-20 19:45:00,
2013-02-20 13:50:00,56.0,36.6,30.12,North,32767,0.0,0.0,48,0.00,,,0.00,Wunderground v.1.15,2013-02-20 19:50:00,
2013-02-20 13:55:00,55.9,35.4,30.12,North,32767,0.0,0.0,46,0.00,,,0.00,Wunderground v.1.15,2013-02-20 19:55:00,
2013-02-20 14:05:00,56.0,34.9,30.13,North,32767,0.0,0.0,45,0.00,,,0.00,Wunderground v.1.15,2013-02-20 20:05:00,
2013-02-20 14:10:00,55.9,35.9,30.13,North,32767,0.0,0.0,47,0.00,,,0.00,Wunderground v.1.15,2013-02-20 20:10:00,
2013-02-20 14:15:00,55.9,34.8,30.13,North,32767,0.0,0.0,45,0.00,,,0.00,Wunderground v.1.15,2013-02-20 20:15:00,
2013-02-20 14:20:00,55.7,35.2,30.12,North,32767,0.0,0.0,46,0.00,,,0.00,Wunderground v.1.15,2013-02-20 20:20:00,
2013-02-20 14:25:00,56.1,37.7,30.12,North,32767,0.0,0.0,50,0.00,,,0.00,Wunderground v.1.15,2013-02-20 20:25:00,
2013-02-20 14:30:00,56.2,35.7,30.11,North,32767,0.0,0.0,46,0.00,,,0.00,Wunderground v.1.15,2013-02-20 20:30:00,
2013-02-20 14:35:00,56.3,36.3,30.11,North,32767,0.0,0.0,47,0.00,,,0.00,Wunderground v.1.15,2013-02-20 20:35:00,
2013-02-20 14:40:00,56.7,37.2,30.12,North,32767,0.0,0.0,48,0.00,,,0.00,Wunderground v.1.15,2013-02-20 20:40:00,
2013-02-20 14:45:00,57.0,34.7,30.12,North,32767,0.0,0.0,43,0.00,,,0.00,Wunderground v.1.15,2013-02-20 20:45:00,
2013-02-20 14:50:00,57.1,35.9,30.11,North,32767,0.0,0.0,45,0.00,,,0.00,Wunderground v.1.15,2013-02-20 20:50:00,
2013-02-20 14:55:00,56.9,35.8,30.11,North,32767,0.0,0.0,45,0.00,,,0.00,Wunderground v.1.15,2013-02-20 20:55:00,
2013-02-20 15:00:00,56.5,34.8,30.11,North,32767,0.0,0.0,44,0.00,,,0.00,Wunderground v.1.15,2013-02-20 21:00:00,
2013-02-20 15:05:00,56.4,35.9,30.10,North,32767,0.0,0.0,46,0.00,,,0.00,Wunderground v.1.15,2013-02-20 21:05:00,
2013-02-20 15:15:00,56.5,37.0,30.10,North,32767,0.0,0.0,48,0.00,,,0.00,Wunderground v.1.15,2013-02-20 21:15:00,
2013-02-20 15:20:00,56.5,37.0,30.10,North,32767,0.0,0.0,48,0.00,,,0.00,Wunderground v.1.15,2013-02-20 21:20:00,
2013-02-20 15:30:00,56.4,36.9,30.10,North,32767,0.0,0.0,48,0.00,,,0.00,Wunderground v.1.15,2013-02-20 21:30:00,
2013-02-20 15:35:00,56.5,36.5,30.10,North,32767,0.0,0.0,47,0.00,,,0.00,Wunderground v.1.15,2013-02-20 21:35:00,
2013-02-20 15:40:00,56.6,39.2,30.10,North,32767,0.0,0.0,52,0.00,,,0.00,Wunderground v.1.15,2013-02-20 21:40:00,
2013-02-20 15:45:00,56.7,40.7,30.10,North,32767,0.0,0.0,55,0.00,,,0.00,Wunderground v.1.15,2013-02-20 21:45:00,
2013-02-20 15:50:00,57.1,38.6,30.10,North,32767,0.0,0.0,50,0.00,,,0.00,Wunderground v.1.15,2013-02-20 21:50:00,
2013-02-20 15:55:00,57.1,41.5,30.10,North,32767,0.0,0.0,56,0.00,,,0.00,Wunderground v.1.15,2013-02-20 21:55:00,
2013-02-20 16:00:00,56.8,37.8,30.09,North,32767,0.0,0.0,49,0.00,,,0.00,Wunderground v.1.15,2013-02-20 22:00:00,
2013-02-20 16:05:00,56.7,36.7,30.10,North,32767,0.0,0.0,47,0.00,,,0.00,Wunderground v.1.15,2013-02-20 22:05:00,
2013-02-20 16:10:00,56.6,38.2,30.10,North,32767,0.0,0.0,50,0.00,,,0.00,Wunderground v.1.15,2013-02-20 22:10:00,
2013-02-20 16:15:00,56.4,37.5,30.10,North,32767,0.0,0.0,49,0.00,,,0.00,Wunderground v.1.15,2013-02-20 22:15:00,
2013-02-20 16:20:00,56.0,37.6,30.11,North,32767,0.0,0.0,50,0.00,,,0.00,Wunderground v.1.15,2013-02-20 22:20:00,
2013-02-20 16:25:00,55.9,38.0,30.10,North,32767,0.0,0.0,51,0.00,,,0.00,Wunderground v.1.15,2013-02-20 22:25:00,
2013-02-20 16:30:00,55.7,37.3,30.10,North,32767,0.0,0.0,50,0.00,,,0.00,Wunderground v.1.15,2013-02-20 22:30:00,
2013-02-20 16:40:00,55.8,37.4,30.11,North,32767,0.0,0.0,50,0.00,,,0.00,Wunderground v.1.15,2013-02-20 22:40:00,
2013-02-20 16:45:00,55.8,37.9,30.11,North,32767,0.0,0.0,51,0.00,,,0.00,Wunderground v.1.15,2013-02-20 22:45:00,
2013-02-20 16:50:00,55.7,39.8,30.11,North,32767,0.0,0.0,55,0.00,,,0.00,Wunderground v.1.15,2013-02-20 22:50:00,
2013-02-20 16:55:00,55.5,37.1,30.11,North,32767,0.0,0.0,50,0.00,,,0.00,Wunderground v.1.15,2013-02-20 22:55:00,
2013-02-20 17:00:00,55.4,40.0,30.11,North,32767,0.0,0.0,56,0.00,,,0.00,Wunderground v.1.15,2013-02-20 23:00:00,
2013-02-20 17:05:00,55.1,40.6,30.11,North,32767,0.0,0.0,58,0.00,,,0.00,Wunderground v.1.15,2013-02-20 23:05:00,
2013-02-20 17:15:00,54.3,40.7,30.11,North,32767,0.0,0.0,60,0.00,,,0.00,Wunderground v.1.15,2013-02-20 23:15:00,
2013-02-20 17:25:00,53.8,41.5,30.11,North,32767,0.0,0.0,63,0.00,,,0.00,Wunderground v.1.15,2013-02-20 23:25:00,
2013-02-20 17:30:00,53.6,42.1,30.11,North,32767,0.0,0.0,65,0.00,,,0.00,Wunderground v.1.15,2013-02-20 23:30:00,
2013-02-20 17:35:00,53.4,41.9,30.12,North,32767,0.0,0.0,65,0.00,,,0.00,Wunderground v.1.15,2013-02-20 23:35:00,
2013-02-20 17:40:00,53.2,41.7,30.12,North,32767,0.0,0.0,65,0.00,,,0.00,Wunderground v.1.15,2013-02-20 23:40:00,
2013-02-20 17:45:00,53.0,41.5,30.11,North,32767,0.0,0.0,65,0.00,,,0.00,Wunderground v.1.15,2013-02-20 23:45:00,
2013-02-20 17:55:00,52.7,40.9,30.12,North,32767,0.0,0.0,64,0.00,,,0.00,Wunderground v.1.15,2013-02-20 23:55:00,
2013-02-20 18:00:00,52.6,41.2,30.12,North,32767,0.0,0.0,65,0.00,,,0.00,Wunderground v.1.15,2013-02-21 00:00:00,
2013-02-20 18:05:00,52.4,41.0,30.12,North,32767,0.0,0.0,65,0.00,,,0.00,Wunderground v.1.15,2013-02-21 00:05:00,
2013-02-20 18:10:00,52.3,40.9,30.11,North,32767,0.0,0.0,65,0.00,,,0.00,Wunderground v.1.15,2013-02-21 00:10:00,
2013-02-20 18:15:00,52.2,41.2,30.11,North,32767,0.0,0.0,66,0.00,,,0.00,Wunderground v.1.15,2013-02-21 00:15:00,
2013-02-20 18:20:00,52.2,40.8,30.11,North,32767,0.0,0.0,65,0.00,,,0.00,Wunderground v.1.15,2013-02-21 00:20:00,
2013-02-20 18:25:00,52.1,40.7,30.12,North,32767,0.0,0.0,65,0.00,,,0.00,Wunderground v.1.15,2013-02-21 00:25:00,
2013-02-20 18:35:00,52.0,41.0,30.12,North,32767,0.0,0.0,66,0.00,,,0.00,Wunderground v.1.15,2013-02-21 00:35:00,
2013-02-20 18:40:00,51.9,40.5,30.12,North,32767,0.0,0.0,65,0.00,,,0.00,Wunderground v.1.15,2013-02-21 00:40:00,
2013-02-20 18:45:00,51.8,40.8,30.12,North,32767,0.0,0.0,66,0.00,,,0.00,Wunderground v.1.15,2013-02-21 00:45:00,
2013-02-20 18:50:00,51.7,40.7,30.12,North,32767,0.0,0.0,66,0.00,,,0.00,Wunderground v.1.15,2013-02-21 00:50:00,
2013-02-20 18:55:00,51.5,40.5,30.12,North,32767,0.0,0.0,66,0.00,,,0.00,Wunderground v.1.15,2013-02-21 00:55:00,
2013-02-20 19:05:00,51.2,41.7,30.12,North,32767,0.0,0.0,70,0.00,,,0.00,Wunderground v.1.15,2013-02-21 01:05:00,
2013-02-20 19:10:00,50.9,41.8,30.12,North,32767,0.0,0.0,71,0.00,,,0.00,Wunderground v.1.15,2013-02-21 01:10:00,
2013-02-20 19:15:00,50.5,42.2,30.12,North,32767,0.0,0.0,73,0.00,,,0.00,Wunderground v.1.15,2013-02-21 01:15:00,
2013-02-20 19:20:00,50.0,41.7,30.12,North,32767,0.0,0.0,73,0.00,,,0.00,Wunderground v.1.15,2013-02-21 01:20:00,
2013-02-20 19:25:00,49.7,42.1,30.11,North,32767,0.0,0.0,75,0.00,,,0.00,Wunderground v.1.15,2013-02-21 01:25:00,
2013-02-20 19:30:00,49.2,41.6,30.11,North,32767,0.0,0.0,75,0.00,,,0.00,Wunderground v.1.15,2013-02-21 01:30:00,
2013-02-20 19:35:00,48.9,41.7,30.11,North,32767,0.0,0.0,76,0.00,,,0.00,Wunderground v.1.15,2013-02-21 01:35:00,
2013-02-20 19:40:00,48.6,41.7,30.11,North,32767,0.0,0.0,77,0.00,,,0.00,Wunderground v.1.15,2013-02-21 01:40:00,
2013-02-20 19:45:00,48.2,41.3,30.11,North,32767,0.0,0.0,77,0.00,,,0.00,Wunderground v.1.15,2013-02-21 01:45:00,
2013-02-20 19:50:00,47.9,41.4,30.11,North,32767,0.0,0.0,78,0.00,,,0.00,Wunderground v.1.15,2013-02-21 01:50:00,
2013-02-20 19:55:00,47.6,41.4,30.11,North,32767,0.0,0.0,79,0.00,,,0.00,Wunderground v.1.15,2013-02-21 01:55:00,
2013-02-20 20:00:00,47.3,41.4,30.11,North,32767,0.0,0.0,80,0.00,,,0.00,Wunderground v.1.15,2013-02-21 02:00:00,
2013-02-20 20:05:00,47.1,41.2,30.11,North,32767,0.0,0.0,80,0.00,,,0.00,Wunderground v.1.15,2013-02-21 02:05:00,
2013-02-20 20:15:00,46.6,41.4,30.11,North,32767,0.0,0.0,82,0.00,,,0.00,Wunderground v.1.15,2013-02-21 02:15:00,
2013-02-20 20:20:00,46.4,41.5,30.11,North,32767,0.0,0.0,83,0.00,,,0.00,Wunderground v.1.15,2013-02-21 02:20:00,
2013-02-20 20:30:00,46.0,41.7,30.11,North,32767,0.0,0.0,85,0.00,,,0.00,Wunderground v.1.15,2013-02-21 02:30:00,
2013-02-20 20:35:00,46.0,41.7,30.11,North,32767,0.0,0.0,85,0.00,,,0.00,Wunderground v.1.15,2013-02-21 02:35:00,
2013-02-20 20:40:00,45.9,41.9,30.11,North,32767,0.0,0.0,86,0.00,,,0.00,Wunderground v.1.15,2013-02-21 02:40:00,
2013-02-20 20:45:00,45.8,41.9,30.11,North,32767,0.0,0.0,86,0.00,,,0.00,Wunderground v.1.15,2013-02-21 02:45:00,
2013-02-20 20:50:00,45.6,42.0,30.11,North,32767,0.0,0.0,87,0.00,,,0.00,Wunderground v.1.15,2013-02-21 02:50:00,
2013-02-20 20:55:00,45.5,42.2,30.10,North,32767,0.0,0.0,88,0.00,,,0.00,Wunderground v.1.15,2013-02-21 02:55:00,
2013-02-20 21:00:00,45.3,42.2,30.10,North,32767,0.0,0.0,89,0.00,,,0.00,Wunderground v.1.15,2013-02-21 03:00:00,
2013-02-20 21:05:00,45.1,42.1,30.10,North,32767,0.0,0.0,89,0.00,,,0.00,Wunderground v.1.15,2013-02-21 03:05:00,
2013-02-20 21:10:00,45.0,42.2,30.11,North,32767,0.0,0.0,90,0.00,,,0.00,Wunderground v.1.15,2013-02-21 03:10:00,
2013-02-20 21:15:00,44.9,42.1,30.11,North,32767,0.0,0.0,90,0.00,,,0.00,Wunderground v.1.15,2013-02-21 03:15:00,
2013-02-20 21:20:00,44.8,42.3,30.10,North,32767,0.0,0.0,91,0.00,,,0.00,Wunderground v.1.15,2013-02-21 03:20:00,
2013-02-20 21:25:00,44.9,42.7,30.10,North,32767,0.0,0.0,92,0.00,,,0.00,Wunderground v.1.15,2013-02-21 03:25:00,
2013-02-20 21:35:00,44.9,42.7,30.11,North,32767,0.0,0.0,92,0.00,,,0.00,Wunderground v.1.15,2013-02-21 03:35:00,
2013-02-20 21:40:00,45.0,42.8,30.11,North,32767,0.0,0.0,92,0.00,,,0.00,Wunderground v.1.15,2013-02-21 03:40:00,
2013-02-20 21:45:00,45.1,42.9,30.11,North,32767,0.0,0.0,92,0.00,,,0.00,Wunderground v.1.15,2013-02-21 03:45:00,
2013-02-20 21:50:00,45.1,42.6,30.12,North,32767,0.0,0.0,91,0.00,,,0.00,Wunderground v.1.15,2013-02-21 03:50:00,
2013-02-20 22:00:00,45.1,42.6,30.12,North,32767,0.0,0.0,91,0.00,,,0.00,Wunderground v.1.15,2013-02-21 04:00:00,
2013-02-20 22:05:00,44.9,42.4,30.11,North,32767,0.0,0.0,91,0.00,,,0.00,Wunderground v.1.15,2013-02-21 04:05:00,
2013-02-20 22:10:00,44.7,42.5,30.11,North,32767,0.0,0.0,92,0.00,,,0.00,Wunderground v.1.15,2013-02-21 04:10:00,
2013-02-20 22:15:00,44.5,42.3,30.11,North,32767,0.0,0.0,92,0.00,,,0.00,Wunderground v.1.15,2013-02-21 04:15:00,
2013-02-20 22:20:00,44.3,42.1,30.11,North,32767,0.0,0.0,92,0.00,,,0.00,Wunderground v.1.15,2013-02-21 04:20:00,
2013-02-20 22:25:00,44.2,42.3,30.11,North,32767,0.0,0.0,93,0.00,,,0.00,Wunderground v.1.15,2013-02-21 04:25:00,
2013-02-20 22:30:00,44.2,42.3,30.10,North,32767,0.0,0.0,93,0.00,,,0.00,Wunderground v.1.15,2013-02-21 04:30:00,
2013-02-20 22:35:00,44.2,42.3,30.10,North,32767,0.0,0.0,93,0.00,,,0.00,Wunderground v.1.15,2013-02-21 04:35:00,
2013-02-20 22:40:00,44.2,42.3,30.09,North,32767,0.0,0.0,93,0.00,,,0.00,Wunderground v.1.15,2013-02-21 04:40:00,
2013-02-20 22:45:00,44.3,42.4,30.09,North,32767,0.0,0.0,93,0.00,,,0.00,Wunderground v.1.15,2013-02-21 04:45:00,
2013-02-20 22:50:00,44.3,42.4,30.08,North,32767,0.0,0.0,93,0.00,,,0.00,Wunderground v.1.15,2013-02-21 04:50:00,
2013-02-20 22:55:00,44.3,42.4,30.08,North,32767,0.0,0.0,93,0.00,,,0.00,Wunderground v.1.15,2013-02-21 04:55:00,
2013-02-20 23:00:00,44.5,42.0,30.08,North,32767,0.0,0.0,91,0.00,,,0.00,Wunderground v.1.15,2013-02-21 05:00:00,
2013-02-20 23:05:00,44.9,42.4,30.08,North,32767,0.0,0.0,91,0.00,,,0.00,Wunderground v.1.15,2013-02-21 05:05:00,
2013-02-20 23:15:00,45.3,42.5,30.08,North,32767,0.0,0.0,90,0.00,,,0.00,Wunderground v.1.15,2013-02-21 05:15:00,
2013-02-20 23:20:00,45.3,42.5,30.08,North,32767,0.0,0.0,90,0.00,,,0.00,Wunderground v.1.15,2013-02-21 05:20:00,
2013-02-20 23:25:00,45.4,42.6,30.07,North,32767,0.0,0.0,90,0.00,,,0.00,Wunderground v.1.15,2013-02-21 05:25:00,
2013-02-20 23:30:00,46.0,42.6,30.07,North,32767,0.0,0.0,88,0.00,,,0.00,Wunderground v.1.15,2013-02-21 05:30:00,
2013-02-20 23:35:00,46.9,42.9,30.07,North,32767,0.0,0.0,86,0.00,,,0.00,Wunderground v.1.15,2013-02-21 05:35:00,
2013-02-20 23:40:00,47.2,43.2,30.06,North,32767,0.0,0.0,86,0.00,,,0.00,Wunderground v.1.15,2013-02-21 05:40:00,
2013-02-20 23:45:00,47.2,43.2,30.06,North,32767,0.0,0.0,86,0.00,,,0.00,Wunderground v.1.15,2013-02-21 05:45:00,
2013-02-20 23:50:00,46.7,42.7,30.04,North,32767,0.0,0.0,86,0.00,,,0.00,Wunderground v.1.15,2013-02-21 05:50:00,
2013-02-20 23:55:00,46.5,42.5,30.05,North,32767,0.0,0.0,86,0.00,,,0.00,Wunderground v.1.15,2013-02-21 05:55:00,